Year,Month,Day,Hour,Minute,Value (Times are PST for temperature in C)
2008,06,29,00,00,19.30
2008,06,29,00,01,19.30
2008,06,29,00,02,19.30
2008,06,29,00,03,19.20
2008,06,29,00,04,19.20
2008,06,29,00,05,19.20
2008,06,29,00,06,19.20
2008,06,29,00,07,19.10
2008,06,29,00,08,19.10
2008,06,29,00,09,19.10
2008,06,29,00,10,19.10
2008,06,29,00,11,19.10
2008,06,29,00,12,19.10
2008,06,29,00,13,19.20
2008,06,29,00,14,19.20
2008,06,29,00,15,19.20
2008,06,29,00,16,19.30
2008,06,29,00,17,19.30
2008,06,29,00,18,19.40
2008,06,29,00,19,19.40
2008,06,29,00,20,19.50
2008,06,29,00,21,19.50
2008,06,29,00,22,19.60
2008,06,29,00,23,19.60
2008,06,29,00,24,19.60
2008,06,29,00,25,19.60
2008,06,29,00,26,19.60
2008,06,29,00,27,19.60
2008,06,29,00,28,19.60
2008,06,29,00,29,19.60
2008,06,29,00,30,19.60
2008,06,29,00,31,19.60
2008,06,29,00,32,19.60
2008,06,29,00,33,19.60
2008,06,29,00,34,19.60
2008,06,29,00,35,19.60
2008,06,29,00,36,19.50
2008,06,29,00,37,19.50
2008,06,29,00,38,19.50
2008,06,29,00,39,19.40
2008,06,29,00,40,19.40
2008,06,29,00,41,19.40
2008,06,29,00,42,19.40
2008,06,29,00,43,19.40
2008,06,29,00,44,19.40
2008,06,29,00,45,19.40
2008,06,29,00,46,19.40
2008,06,29,00,47,19.30
2008,06,29,00,48,19.30
2008,06,29,00,49,19.30
2008,06,29,00,50,19.20
2008,06,29,00,51,19.10
2008,06,29,00,52,19.00
2008,06,29,00,53,18.90
2008,06,29,00,54,18.80
2008,06,29,00,55,18.80
2008,06,29,00,56,18.70
2008,06,29,00,57,18.70
2008,06,29,00,58,18.70
2008,06,29,00,59,18.70
2008,06,29,01,00,18.60
2008,06,29,01,01,18.60
2008,06,29,01,02,18.60
2008,06,29,01,03,18.60
2008,06,29,01,04,18.60
2008,06,29,01,05,18.60
2008,06,29,01,06,18.70
2008,06,29,01,07,18.70
2008,06,29,01,08,18.70
2008,06,29,01,09,18.70
2008,06,29,01,10,18.70
2008,06,29,01,11,18.70
2008,06,29,01,12,18.70
2008,06,29,01,13,18.80
2008,06,29,01,14,18.80
2008,06,29,01,15,18.80
2008,06,29,01,16,18.80
2008,06,29,01,17,18.80
2008,06,29,01,18,18.90
2008,06,29,01,19,18.90
2008,06,29,01,20,18.80
2008,06,29,01,21,18.80
2008,06,29,01,22,18.80
2008,06,29,01,23,18.80
2008,06,29,01,24,18.70
2008,06,29,01,25,18.70
2008,06,29,01,26,18.70
2008,06,29,01,27,18.70
2008,06,29,01,28,18.70
2008,06,29,01,29,18.70
2008,06,29,01,30,18.70
2008,06,29,01,31,18.70
2008,06,29,01,32,18.70
2008,06,29,01,33,18.70
2008,06,29,01,34,18.70
2008,06,29,01,35,18.70
2008,06,29,01,36,18.80
2008,06,29,01,37,18.80
2008,06,29,01,38,18.80
2008,06,29,01,39,18.80
2008,06,29,01,40,18.80
2008,06,29,01,41,18.80
2008,06,29,01,42,18.70
2008,06,29,01,43,18.70
2008,06,29,01,44,18.70
2008,06,29,01,45,18.70
2008,06,29,01,46,18.60
2008,06,29,01,47,18.60
2008,06,29,01,48,18.60
2008,06,29,01,49,18.50
2008,06,29,01,50,18.50
2008,06,29,01,51,18.40
2008,06,29,01,52,18.40
2008,06,29,01,53,18.40
2008,06,29,01,54,18.40
2008,06,29,01,55,18.40
2008,06,29,01,56,18.40
2008,06,29,01,57,18.40
2008,06,29,01,58,18.30
2008,06,29,01,59,18.30
2008,06,29,02,00,18.30
2008,06,29,02,01,18.30
2008,06,29,02,02,18.30
2008,06,29,02,03,18.30
2008,06,29,02,04,18.20
2008,06,29,02,05,18.20
2008,06,29,02,06,18.20
2008,06,29,02,07,18.10
2008,06,29,02,08,18.00
2008,06,29,02,09,18.00
2008,06,29,02,10,17.90
2008,06,29,02,11,17.90
2008,06,29,02,12,17.80
2008,06,29,02,13,17.80
2008,06,29,02,14,17.80
2008,06,29,02,15,17.80
2008,06,29,02,16,17.70
2008,06,29,02,17,17.70
2008,06,29,02,18,17.70
2008,06,29,02,19,17.70
2008,06,29,02,20,17.70
2008,06,29,02,21,17.70
2008,06,29,02,22,17.60
2008,06,29,02,23,17.60
2008,06,29,02,24,17.60
2008,06,29,02,25,17.60
2008,06,29,02,26,17.50
2008,06,29,02,27,17.50
2008,06,29,02,28,17.50
2008,06,29,02,29,17.40
2008,06,29,02,30,17.40
2008,06,29,02,31,17.40
2008,06,29,02,32,17.30
2008,06,29,02,33,17.30
2008,06,29,02,34,17.30
2008,06,29,02,35,17.30
2008,06,29,02,36,17.20
2008,06,29,02,37,17.20
2008,06,29,02,38,17.20
2008,06,29,02,39,17.10
2008,06,29,02,40,17.10
2008,06,29,02,41,17.00
2008,06,29,02,42,16.90
2008,06,29,02,43,16.90
2008,06,29,02,44,16.90
2008,06,29,02,45,16.80
2008,06,29,02,46,16.70
2008,06,29,02,47,16.70
2008,06,29,02,48,16.60
2008,06,29,02,49,16.50
2008,06,29,02,50,16.40
2008,06,29,02,51,16.40
2008,06,29,02,52,16.30
2008,06,29,02,53,16.20
2008,06,29,02,54,16.10
2008,06,29,02,55,16.10
2008,06,29,02,56,16.00
2008,06,29,02,57,15.90
2008,06,29,02,58,15.80
2008,06,29,02,59,15.80
2008,06,29,03,00,15.80
2008,06,29,03,01,15.70
2008,06,29,03,02,15.70
2008,06,29,03,03,15.60
2008,06,29,03,04,15.60
2008,06,29,03,05,15.60
2008,06,29,03,06,15.50
2008,06,29,03,07,15.50
2008,06,29,03,08,15.50
2008,06,29,03,09,15.40
2008,06,29,03,10,15.40
2008,06,29,03,11,15.40
2008,06,29,03,12,15.40
2008,06,29,03,13,15.40
2008,06,29,03,14,15.40
2008,06,29,03,15,15.40
2008,06,29,03,16,15.40
2008,06,29,03,17,15.30
2008,06,29,03,18,15.30
2008,06,29,03,19,15.30
2008,06,29,03,20,15.30
2008,06,29,03,21,15.30
2008,06,29,03,22,15.30
2008,06,29,03,23,15.30
2008,06,29,03,24,15.30
2008,06,29,03,25,15.30
2008,06,29,03,26,15.30
2008,06,29,03,27,15.30
2008,06,29,03,28,15.30
2008,06,29,03,29,15.40
2008,06,29,03,30,15.40
2008,06,29,03,31,15.40
2008,06,29,03,32,15.40
2008,06,29,03,33,15.30
2008,06,29,03,34,15.30
2008,06,29,03,35,15.30
2008,06,29,03,36,15.30
2008,06,29,03,37,15.30
2008,06,29,03,38,15.30
2008,06,29,03,39,15.30
2008,06,29,03,40,15.20
2008,06,29,03,41,15.20
2008,06,29,03,42,15.20
2008,06,29,03,43,15.20
2008,06,29,03,44,15.20
2008,06,29,03,45,15.20
2008,06,29,03,46,15.20
2008,06,29,03,47,15.20
2008,06,29,03,48,15.20
2008,06,29,03,49,15.20
2008,06,29,03,50,15.20
2008,06,29,03,51,15.20
2008,06,29,03,52,15.20
2008,06,29,03,53,15.20
2008,06,29,03,54,15.20
2008,06,29,03,55,15.20
2008,06,29,03,56,15.20
2008,06,29,03,57,15.20
2008,06,29,03,58,15.20
2008,06,29,03,59,15.20
2008,06,29,04,00,15.20
2008,06,29,04,01,15.20
2008,06,29,04,02,15.20
2008,06,29,04,03,15.20
2008,06,29,04,04,15.20
2008,06,29,04,05,15.20
2008,06,29,04,10,15.30
2008,06,29,04,11,15.30
2008,06,29,04,12,15.30
2008,06,29,04,13,15.20
2008,06,29,04,14,15.20
2008,06,29,04,15,15.20
2008,06,29,04,16,15.20
2008,06,29,04,17,15.20
2008,06,29,04,18,15.20
2008,06,29,04,19,15.20
2008,06,29,04,20,15.10
2008,06,29,04,21,15.10
2008,06,29,04,22,15.10
2008,06,29,04,23,15.10
2008,06,29,04,24,15.10
2008,06,29,04,30,15.00
2008,06,29,04,31,15.00
2008,06,29,04,32,15.00
2008,06,29,04,33,15.00
2008,06,29,04,34,15.00
2008,06,29,04,35,15.00
2008,06,29,04,36,15.00
2008,06,29,04,37,15.00
2008,06,29,04,38,15.00
2008,06,29,04,39,15.00
2008,06,29,04,40,15.00
2008,06,29,04,41,15.00
2008,06,29,04,42,15.00
2008,06,29,04,43,15.00
2008,06,29,04,44,15.00
2008,06,29,04,45,15.00
2008,06,29,04,46,15.00
2008,06,29,04,47,15.10
2008,06,29,04,48,15.10
2008,06,29,04,49,15.10
2008,06,29,04,50,15.10
2008,06,29,04,51,15.10
2008,06,29,04,52,15.10
2008,06,29,04,53,15.10
2008,06,29,04,54,15.00
2008,06,29,04,55,15.00
2008,06,29,04,56,15.00
2008,06,29,04,57,15.00
2008,06,29,04,58,15.00
2008,06,29,04,59,15.00
2008,06,29,05,00,15.00
2008,06,29,05,01,15.00
2008,06,29,05,02,15.00
2008,06,29,05,03,15.00
2008,06,29,05,04,15.00
2008,06,29,05,05,15.00
2008,06,29,05,06,15.00
2008,06,29,05,07,15.00
2008,06,29,05,08,15.00
2008,06,29,05,09,15.00
2008,06,29,05,10,15.00
2008,06,29,05,11,15.00
2008,06,29,05,12,15.00
2008,06,29,05,13,15.00
2008,06,29,05,14,15.00
2008,06,29,05,15,15.00
2008,06,29,05,16,15.00
2008,06,29,05,17,14.90
2008,06,29,05,18,14.90
2008,06,29,05,19,14.90
2008,06,29,05,20,14.90
2008,06,29,05,21,14.90
2008,06,29,05,22,14.90
2008,06,29,05,23,14.90
2008,06,29,05,24,14.90
2008,06,29,05,25,14.90
2008,06,29,05,26,14.90
2008,06,29,05,27,14.90
2008,06,29,05,28,14.90
2008,06,29,05,29,14.90
2008,06,29,05,30,14.90
2008,06,29,05,31,14.90
2008,06,29,05,32,14.90
2008,06,29,05,33,14.90
2008,06,29,05,34,14.90
2008,06,29,05,35,14.80
2008,06,29,05,36,14.80
2008,06,29,05,37,14.80
2008,06,29,05,38,14.90
2008,06,29,05,39,14.90
2008,06,29,05,40,14.90
2008,06,29,05,41,14.90
2008,06,29,05,42,15.00
2008,06,29,05,43,15.00
2008,06,29,05,44,15.00
2008,06,29,05,45,15.00
2008,06,29,05,46,15.00
2008,06,29,05,47,15.00
2008,06,29,05,48,15.00
2008,06,29,05,49,15.00
2008,06,29,05,50,15.00
2008,06,29,05,51,15.00
2008,06,29,05,52,15.00
2008,06,29,05,53,15.00
2008,06,29,05,54,15.10
2008,06,29,05,55,15.20
2008,06,29,05,56,15.20
2008,06,29,05,57,15.30
2008,06,29,05,58,15.30
2008,06,29,05,59,15.30
2008,06,29,06,00,15.40
2008,06,29,06,01,15.40
2008,06,29,06,02,15.50
2008,06,29,06,03,15.60
2008,06,29,06,04,15.60
2008,06,29,06,05,15.70
2008,06,29,06,06,15.70
2008,06,29,06,07,15.70
2008,06,29,06,08,15.70
2008,06,29,06,09,15.80
2008,06,29,06,10,15.80
2008,06,29,06,11,15.80
2008,06,29,06,12,15.80
2008,06,29,06,13,15.80
2008,06,29,06,14,15.80
2008,06,29,06,15,15.80
2008,06,29,06,16,15.80
2008,06,29,06,17,15.80
2008,06,29,06,18,15.80
2008,06,29,06,19,15.90
2008,06,29,06,20,15.90
2008,06,29,06,21,15.90
2008,06,29,06,22,16.00
2008,06,29,06,23,16.10
2008,06,29,06,24,16.10
2008,06,29,06,25,16.20
2008,06,29,06,26,16.30
2008,06,29,06,27,16.40
2008,06,29,06,28,16.40
2008,06,29,06,29,16.50
2008,06,29,06,30,16.60
2008,06,29,06,31,16.70
2008,06,29,06,32,16.80
2008,06,29,06,33,16.90
2008,06,29,06,34,17.00
2008,06,29,06,35,17.10
2008,06,29,06,36,17.20
2008,06,29,06,37,17.30
2008,06,29,06,38,17.40
2008,06,29,06,39,17.40
2008,06,29,06,40,17.50
2008,06,29,06,41,17.60
2008,06,29,06,42,17.60
2008,06,29,06,43,17.70
2008,06,29,06,44,17.70
2008,06,29,06,45,17.80
2008,06,29,06,46,17.90
2008,06,29,06,47,17.90
2008,06,29,06,48,17.90
2008,06,29,06,49,18.00
2008,06,29,06,50,18.00
2008,06,29,06,51,18.10
2008,06,29,06,52,18.10
2008,06,29,06,53,18.20
2008,06,29,06,54,18.20
2008,06,29,06,55,18.20
2008,06,29,06,56,18.30
2008,06,29,06,57,18.30
2008,06,29,06,58,18.40
2008,06,29,06,59,18.40
2008,06,29,07,00,18.40
2008,06,29,07,01,18.40
2008,06,29,07,02,18.50
2008,06,29,07,03,18.50
2008,06,29,07,04,18.60
2008,06,29,07,05,18.60
2008,06,29,07,06,18.70
2008,06,29,07,07,18.70
2008,06,29,07,08,18.70
2008,06,29,07,09,18.80
2008,06,29,07,10,18.80
2008,06,29,07,11,18.80
2008,06,29,07,12,18.80
2008,06,29,07,13,18.80
2008,06,29,07,14,18.90
2008,06,29,07,15,18.90
2008,06,29,07,16,18.90
2008,06,29,07,17,19.00
2008,06,29,07,18,19.00
2008,06,29,07,19,19.00
2008,06,29,07,20,19.10
2008,06,29,07,21,19.10
2008,06,29,07,22,19.10
2008,06,29,07,23,19.10
2008,06,29,07,24,19.10
2008,06,29,07,25,19.10
2008,06,29,07,26,19.10
2008,06,29,07,27,19.10
2008,06,29,07,28,19.10
2008,06,29,07,29,19.10
2008,06,29,07,30,19.10
2008,06,29,07,31,19.20
2008,06,29,07,32,19.20
2008,06,29,07,33,19.20
2008,06,29,07,34,19.20
2008,06,29,07,35,19.30
2008,06,29,07,36,19.30
2008,06,29,07,37,19.30
2008,06,29,07,38,19.30
2008,06,29,07,39,19.40
2008,06,29,07,40,19.40
2008,06,29,07,41,19.50
2008,06,29,07,42,19.50
2008,06,29,07,43,19.60
2008,06,29,07,44,19.70
2008,06,29,07,45,19.80
2008,06,29,07,46,19.80
2008,06,29,07,47,19.90
2008,06,29,07,48,20.00
2008,06,29,07,49,20.00
2008,06,29,07,50,20.10
2008,06,29,07,51,20.20
2008,06,29,07,52,20.20
2008,06,29,07,53,20.30
2008,06,29,07,54,20.40
2008,06,29,07,55,20.40
2008,06,29,07,56,20.40
2008,06,29,07,57,20.50
2008,06,29,07,58,20.50
2008,06,29,07,59,20.50
2008,06,29,08,00,20.50
2008,06,29,08,01,20.50
2008,06,29,08,02,20.60
2008,06,29,08,03,20.60
2008,06,29,08,04,20.60
2008,06,29,08,05,20.60
2008,06,29,08,06,20.60
2008,06,29,08,07,20.60
2008,06,29,08,08,20.60
2008,06,29,08,09,20.70
2008,06,29,08,10,20.70
2008,06,29,08,11,20.70
2008,06,29,08,12,20.80
2008,06,29,08,13,20.80
2008,06,29,08,14,20.80
2008,06,29,08,15,20.90
2008,06,29,08,16,20.90
2008,06,29,08,17,21.00
2008,06,29,08,18,21.00
2008,06,29,08,19,21.10
2008,06,29,08,20,21.20
2008,06,29,08,21,21.30
2008,06,29,08,22,21.30
2008,06,29,08,23,21.30
2008,06,29,08,24,21.30
2008,06,29,08,25,21.30
2008,06,29,08,26,21.30
2008,06,29,08,27,21.30
2008,06,29,08,28,21.40
2008,06,29,08,29,21.40
2008,06,29,08,30,21.40
2008,06,29,08,31,21.40
2008,06,29,08,32,21.40
2008,06,29,08,33,21.40
2008,06,29,08,34,21.50
2008,06,29,08,35,21.50
2008,06,29,08,36,21.60
2008,06,29,08,37,21.60
2008,06,29,08,38,21.60
2008,06,29,08,39,21.70
2008,06,29,08,40,21.80
2008,06,29,08,41,21.90
2008,06,29,08,42,22.00
2008,06,29,08,43,22.10
2008,06,29,08,44,22.30
2008,06,29,08,45,22.40
2008,06,29,08,46,22.60
2008,06,29,08,47,22.70
2008,06,29,08,48,22.80
2008,06,29,08,49,23.00
2008,06,29,08,50,23.10
2008,06,29,08,51,23.20
2008,06,29,08,52,23.20
2008,06,29,08,53,23.30
2008,06,29,08,54,23.30
2008,06,29,08,55,23.30
2008,06,29,08,56,23.40
2008,06,29,08,57,23.40
2008,06,29,08,58,23.40
2008,06,29,08,59,23.40
2008,06,29,09,00,23.40
2008,06,29,09,01,23.50
2008,06,29,09,02,23.50
2008,06,29,09,03,23.60
2008,06,29,09,04,23.60
2008,06,29,09,05,23.60
2008,06,29,09,06,23.60
2008,06,29,09,07,23.50
2008,06,29,09,08,23.50
2008,06,29,09,09,23.60
2008,06,29,09,10,23.60
2008,06,29,09,11,23.60
2008,06,29,09,12,23.60
2008,06,29,09,13,23.60
2008,06,29,09,14,23.60
2008,06,29,09,15,23.60
2008,06,29,09,16,23.60
2008,06,29,09,17,23.60
2008,06,29,09,18,23.60
2008,06,29,09,19,23.60
2008,06,29,09,20,23.60
2008,06,29,09,21,23.70
2008,06,29,09,22,23.70
2008,06,29,09,23,23.70
2008,06,29,09,24,23.70
2008,06,29,09,25,23.70
2008,06,29,09,26,23.80
2008,06,29,09,27,23.80
2008,06,29,09,28,23.80
2008,06,29,09,29,23.80
2008,06,29,09,30,23.80
2008,06,29,09,31,23.80
2008,06,29,09,32,23.80
2008,06,29,09,33,23.80
2008,06,29,09,34,23.90
2008,06,29,09,35,23.90
2008,06,29,09,36,24.00
2008,06,29,09,37,24.10
2008,06,29,09,38,24.20
2008,06,29,09,39,24.30
2008,06,29,09,40,24.30
2008,06,29,09,41,24.30
2008,06,29,09,42,24.30
2008,06,29,09,43,24.30
2008,06,29,09,44,24.30
2008,06,29,09,45,24.30
2008,06,29,09,46,24.30
2008,06,29,09,47,24.30
2008,06,29,09,48,24.30
2008,06,29,09,49,24.30
2008,06,29,09,50,24.30
2008,06,29,09,51,24.30
2008,06,29,09,52,24.40
2008,06,29,09,53,24.40
2008,06,29,09,54,24.40
2008,06,29,09,55,24.30
2008,06,29,09,56,24.40
2008,06,29,09,57,24.40
2008,06,29,09,58,24.40
2008,06,29,09,59,24.40
2008,06,29,10,00,24.50
2008,06,29,10,01,24.50
2008,06,29,10,02,24.50
2008,06,29,10,03,24.40
2008,06,29,10,04,24.40
2008,06,29,10,05,24.50
2008,06,29,10,06,24.50
2008,06,29,10,07,24.40
2008,06,29,10,08,24.40
2008,06,29,10,09,24.50
2008,06,29,10,10,24.50
2008,06,29,10,11,24.60
2008,06,29,10,12,24.60
2008,06,29,10,13,24.60
2008,06,29,10,14,24.60
2008,06,29,10,15,24.60
2008,06,29,10,16,24.50
2008,06,29,10,17,24.50
2008,06,29,10,18,24.40
2008,06,29,10,19,24.40
2008,06,29,10,20,24.50
2008,06,29,10,21,24.60
2008,06,29,10,22,24.70
2008,06,29,10,23,24.80
2008,06,29,10,24,24.80
2008,06,29,10,25,24.90
2008,06,29,10,26,25.00
2008,06,29,10,27,25.10
2008,06,29,10,28,25.10
2008,06,29,10,29,25.00
2008,06,29,10,30,25.00
2008,06,29,10,31,25.00
2008,06,29,10,32,24.90
2008,06,29,10,33,24.80
2008,06,29,10,34,24.90
2008,06,29,10,35,24.90
2008,06,29,10,36,24.90
2008,06,29,10,37,24.90
2008,06,29,10,38,24.80
2008,06,29,10,39,24.90
2008,06,29,10,40,24.80
2008,06,29,10,41,24.80
2008,06,29,10,42,24.90
2008,06,29,10,43,24.90
2008,06,29,10,44,25.00
2008,06,29,10,45,25.10
2008,06,29,10,46,25.10
2008,06,29,10,47,25.10
2008,06,29,10,48,25.10
2008,06,29,10,49,25.00
2008,06,29,10,50,25.00
2008,06,29,10,51,24.90
2008,06,29,10,52,24.90
2008,06,29,10,53,25.00
2008,06,29,10,54,25.00
2008,06,29,10,55,25.10
2008,06,29,10,56,25.10
2008,06,29,10,57,25.20
2008,06,29,10,58,25.20
2008,06,29,10,59,25.20
2008,06,29,11,00,25.20
2008,06,29,11,01,25.30
2008,06,29,11,02,25.30
2008,06,29,11,03,25.30
2008,06,29,11,04,25.40
2008,06,29,11,05,25.40
2008,06,29,11,06,25.50
2008,06,29,11,07,25.60
2008,06,29,11,08,25.60
2008,06,29,11,09,25.60
2008,06,29,11,10,25.60
2008,06,29,11,11,25.70
2008,06,29,11,12,25.70
2008,06,29,11,13,25.80
2008,06,29,11,14,25.80
2008,06,29,11,15,25.80
2008,06,29,11,16,25.80
2008,06,29,11,17,25.90
2008,06,29,11,18,25.90
2008,06,29,11,19,25.90
2008,06,29,11,20,25.90
2008,06,29,11,21,25.90
2008,06,29,11,22,25.90
2008,06,29,11,23,25.90
2008,06,29,11,24,25.90
2008,06,29,11,25,25.90
2008,06,29,11,26,26.00
2008,06,29,11,27,26.00
2008,06,29,11,28,26.10
2008,06,29,11,29,26.10
2008,06,29,11,30,26.10
2008,06,29,11,31,26.10
2008,06,29,11,32,26.10
2008,06,29,11,33,26.10
2008,06,29,11,34,26.10
2008,06,29,11,35,26.10
2008,06,29,11,36,26.10
2008,06,29,11,37,26.20
2008,06,29,11,38,26.30
2008,06,29,11,39,26.30
2008,06,29,11,40,26.30
2008,06,29,11,41,26.40
2008,06,29,11,42,26.50
2008,06,29,11,43,26.50
2008,06,29,11,44,26.60
2008,06,29,11,45,26.60
2008,06,29,11,46,26.50
2008,06,29,11,47,26.50
2008,06,29,11,48,26.60
2008,06,29,11,49,26.60
2008,06,29,11,50,26.60
2008,06,29,11,51,26.60
2008,06,29,11,52,26.60
2008,06,29,11,53,26.60
2008,06,29,11,54,26.60
2008,06,29,11,55,26.60
2008,06,29,11,56,26.60
2008,06,29,11,57,26.60
2008,06,29,11,58,26.50
2008,06,29,11,59,26.50
2008,06,29,12,00,26.50
2008,06,29,12,01,26.50
2008,06,29,12,02,26.60
2008,06,29,12,03,26.60
2008,06,29,12,04,26.60
2008,06,29,12,05,26.70
2008,06,29,12,06,26.70
2008,06,29,12,07,26.70
2008,06,29,12,08,26.70
2008,06,29,12,09,26.70
2008,06,29,12,10,26.80
2008,06,29,12,11,26.80
2008,06,29,12,12,26.80
2008,06,29,12,13,26.80
2008,06,29,12,14,26.90
2008,06,29,12,15,26.90
2008,06,29,12,16,26.90
2008,06,29,12,17,26.90
2008,06,29,12,18,26.90
2008,06,29,12,19,26.90
2008,06,29,12,20,26.90
2008,06,29,12,21,26.90
2008,06,29,12,22,27.00
2008,06,29,12,23,27.10
2008,06,29,12,24,27.10
2008,06,29,12,25,27.10
2008,06,29,12,26,27.00
2008,06,29,12,27,27.00
2008,06,29,12,28,26.90
2008,06,29,12,29,26.90
2008,06,29,12,30,26.80
2008,06,29,12,31,26.80
2008,06,29,12,32,26.80
2008,06,29,12,33,26.80
2008,06,29,12,34,26.90
2008,06,29,12,35,26.90
2008,06,29,12,36,26.90
2008,06,29,12,37,26.90
2008,06,29,12,38,26.90
2008,06,29,12,39,26.90
2008,06,29,12,40,26.90
2008,06,29,12,41,26.90
2008,06,29,12,42,27.00
2008,06,29,12,43,27.00
2008,06,29,12,44,27.10
2008,06,29,12,45,27.10
2008,06,29,12,46,27.20
2008,06,29,12,47,27.20
2008,06,29,12,48,27.20
2008,06,29,12,49,27.20
2008,06,29,12,50,27.20
2008,06,29,12,51,27.20
2008,06,29,12,52,27.20
2008,06,29,12,53,27.20
2008,06,29,12,54,27.20
2008,06,29,12,55,27.20
2008,06,29,12,56,27.20
2008,06,29,12,57,27.20
2008,06,29,12,58,27.30
2008,06,29,12,59,27.30
2008,06,29,13,00,27.40
2008,06,29,13,01,27.40
2008,06,29,13,02,27.50
2008,06,29,13,03,27.50
2008,06,29,13,04,27.60
2008,06,29,13,05,27.60
2008,06,29,13,06,27.70
2008,06,29,13,07,27.70
2008,06,29,13,08,27.80
2008,06,29,13,09,27.80
2008,06,29,13,10,27.80
2008,06,29,13,11,27.80
2008,06,29,13,12,27.80
2008,06,29,13,13,27.80
2008,06,29,13,14,27.80
2008,06,29,13,15,27.80
2008,06,29,13,16,27.80
2008,06,29,13,17,27.80
2008,06,29,13,18,27.80
2008,06,29,13,19,27.80
2008,06,29,13,20,27.90
2008,06,29,13,21,27.90
2008,06,29,13,22,27.90
2008,06,29,13,23,27.90
2008,06,29,13,24,27.90
2008,06,29,13,25,27.90
2008,06,29,13,26,28.00
2008,06,29,13,27,28.00
2008,06,29,13,28,28.00
2008,06,29,13,29,28.10
2008,06,29,13,30,28.10
2008,06,29,13,31,28.10
2008,06,29,13,32,28.20
2008,06,29,13,33,28.20
2008,06,29,13,34,28.20
2008,06,29,13,35,28.30
2008,06,29,13,36,28.40
2008,06,29,13,37,28.40
2008,06,29,13,38,28.40
2008,06,29,13,39,28.40
2008,06,29,13,40,28.50
2008,06,29,13,41,28.50
2008,06,29,13,42,28.60
2008,06,29,13,43,28.70
2008,06,29,13,44,28.70
2008,06,29,13,45,28.70
2008,06,29,13,46,28.70
2008,06,29,13,47,28.80
2008,06,29,13,48,28.80
2008,06,29,13,49,28.80
2008,06,29,13,50,28.90
2008,06,29,13,51,28.90
2008,06,29,13,52,28.90
2008,06,29,13,53,28.80
2008,06,29,13,54,28.80
2008,06,29,13,55,28.90
2008,06,29,13,56,29.00
2008,06,29,13,57,29.00
2008,06,29,13,58,29.00
2008,06,29,13,59,28.90
2008,06,29,14,00,28.90
2008,06,29,14,01,28.90
2008,06,29,14,02,28.90
2008,06,29,14,03,28.80
2008,06,29,14,04,28.80
2008,06,29,14,05,28.80
2008,06,29,14,06,28.80
2008,06,29,14,07,28.90
2008,06,29,14,08,28.90
2008,06,29,14,09,29.00
2008,06,29,14,10,29.10
2008,06,29,14,11,29.10
2008,06,29,14,12,29.20
2008,06,29,14,13,29.20
2008,06,29,14,14,29.20
2008,06,29,14,15,29.30
2008,06,29,14,16,29.40
2008,06,29,14,17,29.50
2008,06,29,14,18,29.60
2008,06,29,14,19,29.60
2008,06,29,14,20,29.80
2008,06,29,14,21,29.80
2008,06,29,14,22,29.70
2008,06,29,14,23,29.60
2008,06,29,14,24,29.30
2008,06,29,14,25,29.10
2008,06,29,14,26,29.00
2008,06,29,14,27,28.90
2008,06,29,14,28,28.80
2008,06,29,14,29,28.60
2008,06,29,14,30,28.40
2008,06,29,14,31,28.20
2008,06,29,14,32,28.10
2008,06,29,14,33,28.00
2008,06,29,14,34,28.00
2008,06,29,14,35,27.90
2008,06,29,14,36,27.70
2008,06,29,14,37,27.70
2008,06,29,14,38,27.60
2008,06,29,14,39,27.50
2008,06,29,14,40,27.50
2008,06,29,14,41,27.40
2008,06,29,14,42,27.40
2008,06,29,14,43,27.50
2008,06,29,14,44,27.50
2008,06,29,14,45,27.60
2008,06,29,14,46,27.60
2008,06,29,14,47,27.70
2008,06,29,14,48,27.80
2008,06,29,14,49,27.80
2008,06,29,14,50,27.80
2008,06,29,14,51,27.90
2008,06,29,14,52,28.00
2008,06,29,14,53,28.00
2008,06,29,14,54,28.10
2008,06,29,14,55,28.10
2008,06,29,14,56,28.10
2008,06,29,14,57,28.10
2008,06,29,14,58,28.10
2008,06,29,14,59,28.10
2008,06,29,15,00,28.20
2008,06,29,15,01,28.30
2008,06,29,15,02,28.40
2008,06,29,15,03,28.40
2008,06,29,15,04,28.40
2008,06,29,15,05,28.40
2008,06,29,15,06,28.40
2008,06,29,15,07,28.40
2008,06,29,15,08,28.40
2008,06,29,15,09,28.40
2008,06,29,15,10,28.50
2008,06,29,15,11,28.60
2008,06,29,15,12,28.70
2008,06,29,15,13,28.70
2008,06,29,15,14,28.80
2008,06,29,15,15,28.90
2008,06,29,15,16,29.00
2008,06,29,15,17,29.00
2008,06,29,15,18,29.20
2008,06,29,15,19,29.30
2008,06,29,15,20,29.40
2008,06,29,15,21,29.60
2008,06,29,15,22,29.60
2008,06,29,15,23,29.60
2008,06,29,15,24,29.70
2008,06,29,15,25,29.70
2008,06,29,15,26,29.80
2008,06,29,15,27,29.70
2008,06,29,15,28,29.60
2008,06,29,15,29,29.50
2008,06,29,15,30,29.40
2008,06,29,15,31,29.30
2008,06,29,15,32,29.20
2008,06,29,15,33,29.10
2008,06,29,15,34,29.10
2008,06,29,15,35,29.10
2008,06,29,15,36,29.10
2008,06,29,15,37,29.10
2008,06,29,15,38,29.20
2008,06,29,15,39,29.30
2008,06,29,15,40,29.30
2008,06,29,15,41,29.30
2008,06,29,15,42,29.20
2008,06,29,15,43,29.10
2008,06,29,15,44,29.00
2008,06,29,15,45,28.90
2008,06,29,15,46,28.80
2008,06,29,15,47,28.80
2008,06,29,15,48,28.70
2008,06,29,15,49,28.60
2008,06,29,15,50,28.50
2008,06,29,15,51,28.40
2008,06,29,15,52,28.40
2008,06,29,15,53,28.40
2008,06,29,15,54,28.30
2008,06,29,15,55,28.30
2008,06,29,15,56,28.20
2008,06,29,15,57,28.20
2008,06,29,15,58,28.10
2008,06,29,15,59,28.10
2008,06,29,16,00,28.10
2008,06,29,16,01,28.10
2008,06,29,16,02,28.10
2008,06,29,16,03,28.00
2008,06,29,16,04,28.00
2008,06,29,16,05,28.00
2008,06,29,16,06,27.90
2008,06,29,16,07,27.90
2008,06,29,16,08,27.90
2008,06,29,16,09,27.80
2008,06,29,16,10,27.80
2008,06,29,16,11,27.80
2008,06,29,16,12,27.80
2008,06,29,16,13,27.80
2008,06,29,16,14,27.80
2008,06,29,16,15,27.80
2008,06,29,16,16,27.90
2008,06,29,16,17,27.90
2008,06,29,16,18,28.00
2008,06,29,16,19,28.00
2008,06,29,16,20,28.00
2008,06,29,16,21,28.00
2008,06,29,16,22,28.00
2008,06,29,16,23,28.00
2008,06,29,16,24,27.90
2008,06,29,16,25,28.00
2008,06,29,16,26,28.00
2008,06,29,16,27,28.10
2008,06,29,16,28,28.10
2008,06,29,16,29,28.10
2008,06,29,16,30,28.00
2008,06,29,16,31,27.90
2008,06,29,16,32,27.90
2008,06,29,16,33,28.00
2008,06,29,16,34,28.00
2008,06,29,16,35,28.00
2008,06,29,16,36,28.00
2008,06,29,16,37,28.10
2008,06,29,16,38,28.10
2008,06,29,16,39,28.00
2008,06,29,16,40,27.90
2008,06,29,16,41,27.90
2008,06,29,16,42,27.80
2008,06,29,16,43,27.80
2008,06,29,16,44,27.80
2008,06,29,16,45,27.80
2008,06,29,16,46,27.80
2008,06,29,16,47,27.70
2008,06,29,16,48,27.80
2008,06,29,16,49,27.70
2008,06,29,16,50,27.70
2008,06,29,16,51,27.60
2008,06,29,16,52,27.60
2008,06,29,16,53,27.50
2008,06,29,16,54,27.50
2008,06,29,16,55,27.40
2008,06,29,16,56,27.40
2008,06,29,16,57,27.50
2008,06,29,16,58,27.50
2008,06,29,16,59,27.50
2008,06,29,17,00,27.50
2008,06,29,17,01,27.50
2008,06,29,17,02,27.60
2008,06,29,17,03,27.70
2008,06,29,17,04,27.80
2008,06,29,17,05,27.80
2008,06,29,17,06,27.80
2008,06,29,17,07,27.80
2008,06,29,17,08,27.90
2008,06,29,17,09,28.00
2008,06,29,17,10,28.00
2008,06,29,17,11,28.10
2008,06,29,17,12,28.10
2008,06,29,17,13,28.20
2008,06,29,17,14,28.20
2008,06,29,17,15,28.20
2008,06,29,17,16,28.30
2008,06,29,17,17,28.30
2008,06,29,17,18,28.30
2008,06,29,17,19,28.40
2008,06,29,17,20,28.40
2008,06,29,17,21,28.50
2008,06,29,17,22,28.60
2008,06,29,17,23,28.60
2008,06,29,17,24,28.60
2008,06,29,17,25,28.50
2008,06,29,17,26,28.60
2008,06,29,17,27,28.60
2008,06,29,17,28,28.70